986  
ASUS43 KIWX 300610  
RWRIWX  
 
KIWX WEATHER ROUNDUP  
NATIONAL WEATHER SERVICE NORTHERN INDIANA  
200 AM EDT THU MAY 30 2024  
 
NOTE: "FAIR" INDICATES FEW OR NO CLOUDS BELOW 12,000 FEET WITH NO  
SIGNIFICANT WEATHER AND/OR S TO VISIBILITY
.  
 
* THESE STATIONS ARE NOT UNDER NWS QUALITY CONTROL. THEY ALSO MAY NOT  
REPORT WEATHER SUCH AS PRECIPITATION OR FOG.
 
 
INZ001>027-300700-  
NORTHERN INDIANA  
 
CITY SKY/WX TMP DP RH WIND PRES REMARKS
 
GARY* CLEAR 52 45 76 N7 30.21S  
VALPARAISO CLEAR 50 40 68 NW5 30.20F  
6HR MIN TEMP: 50; 6HR MAX TEMP: 59;  
 
MICHIGAN CITY* CLEAR 43 43 100 CALM 30.21F  
KNOX* CLEAR 45 41 87 CALM 30.20S  
SOUTH BEND CLEAR 49 44 83 W5 30.19F  
6HR MIN TEMP: 49; 6HR MAX TEMP: 63;  
 
ELKHART* CLEAR 50 46 85 W3 30.17F  
GOSHEN MOCLDY 49 43 80 NW5 30.17F  
6HR MIN TEMP: 49; 6HR MAX TEMP: 64;  
 
MONTICELLO* CLEAR 51 40 68 CALM 30.19S  
6HR MIN TEMP: 51; 6HR MAX TEMP: 67;  
 
LOGANSPORT* CLEAR 52 43 71 N6 30.19F  
ROCHESTER* CLEAR 50 48 93 NW5 30.19S  
PLYMOUTH* CLEAR 48 45 87 NW6 30.18F  
WARSAW* CLEAR 49 42 75 W3 30.19S  
AUBURN* MOCLDY 57 54 88 MISG 30.17F  
FORT WAYNE PTCLDY 57 50 77 NW5 30.17F  
6HR MIN TEMP: 57; 6HR MAX TEMP: 66;  
 
HUNTINGTON* CLEAR 53 53 97 W3 30.17S  
6HR MIN TEMP: 53; 6HR MAX TEMP: 66;  
 
PERU/GRISSOM CLEAR 55 45 71 NW7 30.16F  
6HR MIN TEMP: 55; 6HR MAX TEMP: 67;  
 

 
INZ028>050-300700-  
CENTRAL INDIANA  
 
CITY SKY/WX TMP DP RH WIND PRES REMARKS
 
LAFAYETTE CLEAR 49 46 90 CALM 30.19F  
6HR MIN TEMP: 49; 6HR MAX TEMP: 68;  
 
KOKOMO* CLEAR 53 49 86 NW6 30.19F  
6HR MIN TEMP: 53; 6HR MAX TEMP: 66; 6HR PCP: 0.02;  
 
MARION* CLEAR 54 51 89 NW5 30.19S  
6HR MIN TEMP: 24; 6HR MAX TEMP: 88;  
 
MUNCIE* CLEAR 56 50 80 NW6 30.17S  
6HR MIN TEMP: 56; 6HR MAX TEMP: 69;  
 
PORTLAND* CLEAR 55 54 94 CALM 30.17S  
INDIANAPOLIS PTCLDY 57 51 80 E9 30.18S  
6HR MIN TEMP: 57; 6HR MAX TEMP: 69;  
 

 
MIZ043>046-050>051-056>058-064>065-071>073-077>080-300700-  
SOUTHWEST LOWER MICHIGAN  
 
CITY SKY/WX TMP DP RH WIND PRES REMARKS
 
BATTLE CREEK CLEAR 52 48 86 CALM 30.16S  
6HR MIN TEMP: 51; 6HR MAX TEMP: 68;  
 
BENTON HARBOR CLEAR 49 45 86 CALM 30.18S  
6HR MIN TEMP: 49; 6HR MAX TEMP: 61;  
 
COLDWATER* CLEAR 55 52 91 CALM 30.17S  
6HR MIN TEMP: 54; 6HR MAX TEMP: 65;  
 
HILLSDALE* CLOUDY 50 44 79 CALM 30.18R  
6HR MIN TEMP: 49; 6HR MAX TEMP: 64;  
 
HOLLAND CLEAR 53 34 48 VRB3 30.19S  
6HR MIN TEMP: 53; 6HR MAX TEMP: 63;  
 
GRAND RAPIDS CLEAR 50 38 63 NE6 30.18S  
6HR MIN TEMP: 50; 6HR MAX TEMP: 68;  
 
KALAMAZOO CLEAR 52 46 80 CALM 30.17R  
6HR MIN TEMP: 51; 6HR MAX TEMP: 67;  
 
STURGIS* CLOUDY 54 47 75 CALM 30.16F  
6HR MIN TEMP: 54; 6HR MAX TEMP: 63;  
 
THREE RIVERS* CLEAR 51 46 84 CALM 30.17F  
6HR MIN TEMP: 50; 6HR MAX TEMP: 65;  
 

 
OHZ001>008-015>018-024>025-300700-  
NORTHWEST OHIO  
 
CITY SKY/WX TMP DP RH WIND PRES REMARKS
 
WAUSEON* CLOUDY 57 57 100 SE6 30.17S  
DEFIANCE CLOUDY 59 55 87 E3 30.16F  
6HR MIN TEMP: 57; 6HR MAX TEMP: 68;  
 
FINDLAY MOCLDY 57 50 77 CALM 30.16S  
6HR MIN TEMP: 55; 6HR MAX TEMP: 66;  
 
TOLEDO EXPRESS CLOUDY 55 52 89 NE3 30.17S  
6HR MIN TEMP: 53; 6HR MAX TEMP: 65;  
 
VAN WERT* MOCLDY 59 55 88 CALM 30.17S  
 

 
AND FOR LAKE MICHIGAN COASTAL AND OPEN LAKE BUOY OBSERVATIONS  
 
STATION/POSITION TEMP WIND PRES VSBY WAVE
 
AIR SEA DIR/SP/G HT/PER  
(F) (DEG/KT/KT) (MB) (MI) (FT/S)  
CALUMET HARBOR 54 310/ 2/ 5 1022.0  
BURNS HARBOR 56 340/ 6/ 7 1023.0F  
SAINT JOSEPH 58 10/ 8/ 10 1023.0  
SOUTH LAKE BUOY 20/ 8/ 10 N/A 3/ 5  
MICHIGAN CITY 56 290/ 10/ 14 1021.0F 3/ 6  
 

 

 
 
 
CLICK HERE TO GO TO PREVIOUS BULLETINS.

The Nexlab IN Page
The Nexlab OH Page
The Nexlab MI Page Main Text Page